FW9173 Weather Reports


Display with metric or nautical units.
time (UTC)temp
F
wind
direction
speed
MPH
gust
MPH
rain 1hr
in
rain 24hr
in
rain mn
in
humidity
%
barometer
mb
20220926023015 58 0.0 0.0 0.00 0.18 0.01 95 1009.6
20220926022021 58 0.0 0.0 0.00 0.19 0.01 94 1009.8
20220926021016 58 0.0 0.0 0.00 0.20 0.01 94 1010.0
20220926020015 58 0.0 0.0 0.00 0.20 0.01 94 1010.1
20220926015021 58 0.0 0.0 0.00 0.20 0.01 94 1010.1
20220926014036 59 0.0 0.0 0.00 0.20 0.01 94 1010.1
20220926013020 58 0.0 0.0 0.00 0.20 0.01 94 1010.3
20220926012015 58 0.0 0.0 0.00 0.21 0.01 94 1010.5
20220926011041 59 0.0 0.0 0.00 0.21 0.01 94 1010.7
20220926010021 59 0.0 0.0 0.00 0.21 0.01 94 1011.0
20220926004021 59 0.0 0.0 0.00 0.21 0.01 94 1010.9
20220926003040 59 0.0 0.0 0.01 0.21 0.01 94 1011.1
20220926002021 59 0.0 0.0 0.01 0.21 0.01 93 1011.1
20220926001020 59 0.0 0.0 0.01 0.21 0.01 93 1011.2
20220926000036 59 0.0 0.0 0.01 0.21 0.01 93 1011.3
20220925235016 59 0.0 0.0 0.01 0.21 0.01 93 1011.3
20220925234021 60 0.0 0.0 0.01 0.21 0.01 93 1011.3
20220925233016 60 0.0 0.0 0.00 0.20 0.00 93 1011.3
20220925232021 60 0.0 0.0 0.00 0.20 0.00 92 1011.5
20220925231106 60 0.0 0.0 0.00 0.20 0.00 92 1011.6
20220925230016 60 0.0 0.0 0.00 0.20 0.00 92 1011.9
20220925225015 60 0.0 0.0 0.00 0.20 0.00 91 1011.8
20220925224046 60 0.0 0.0 0.00 0.20 0.00 91 1011.8
20220925223036 60 0.0 0.0 0.00 0.20 0.00 90 1011.9
20220925222015 61 0.0 0.0 0.00 0.20 0.00 90 1012.1
20220925221015 61 0.0 0.0 0.00 0.20 0.00 91 1012.1
20220925220016 61 0.0 0.0 0.00 0.20 0.20 91 1012.2
20220925215016 61 0.0 0.0 0.00 0.20 0.20 91 1012.0
20220925214021 61 0.0 0.0 0.00 0.20 0.20 91 1012.0
20220925213016 61 0.0 1.0 0.00 0.20 0.20 91 1011.9
20220925212021 61 0.0 1.0 0.00 0.20 0.20 91 1012.0
20220925211021 61 0.0 0.0 0.00 0.20 0.20 92 1011.9
20220925210046 61 0.0 1.0 0.00 0.20 0.20 92 1012.0
20220925205016 61 0.0 0.0 0.00 0.20 0.20 92 1011.9
20220925204016 61 0.0 1.0 0.00 0.20 0.20 93 1011.9
20220925203016 61 0.0 1.0 0.00 0.20 0.20 93 1012.0
20220925201041 61 0.0 0.0 0.00 0.20 0.20 92 1012.0
20220925200101 61 0.0 0.0 0.00 0.20 0.20 92 1012.1
20220925195041 61 0.0 0.0 0.00 0.20 0.20 92 1012.2
20220925194016 61 0.0 0.0 0.00 0.20 0.20 92 1012.2
20220925193016 62 0.0 0.0 0.00 0.20 0.20 92 1012.1
20220925192041 62 0.0 0.0 0.00 0.20 0.20 92 1012.0
20220925191016 62 0.0 1.0 0.00 0.20 0.20 93 1011.9
20220925190021 62 0.0 0.0 0.00 0.20 0.20 92 1011.9
20220925185021 62 0.0 0.0 0.00 0.20 0.20 91 1012.0
20220925184102 62 0.0 0.0 0.00 0.20 0.20 91 1011.9
20220925183021 62 0.0 0.0 0.00 0.20 0.20 91 1011.8
20220925182106 63 0.0 0.0 0.00 0.20 0.20 91 1011.7
20220925181021 63 0.0 0.0 0.00 0.20 0.20 90 1011.7
20220925180036 63 0.0 0.0 0.01 0.20 0.20 89 1011.6
20220925175021 64 0.0 0.0 0.01 0.20 0.20 89 1011.5
20220925174021 64 0.0 0.0 0.01 0.20 0.20 88 1011.5
20220925173059 65 0.0 3.0 0.01 0.20 0.20 88 1011.6
20220925172036 65 0.0 1.0 0.01 0.20 0.20 88 1011.6
20220925171016 65 0.0 1.0 0.01 0.20 0.20 87 1011.4
20220925170016 66 0.0 0.0 0.00 0.20 0.20 87 1011.4
20220925165016 66 0.0 0.0 0.00 0.20 0.20 86 1011.4
20220925164021 67 0.0 0.0 0.00 0.20 0.20 86 1011.1
20220925163041 67 0.0 0.0 0.00 0.20 0.20 86 1011.3
20220925162021 67 0.0 1.0 0.00 0.20 0.20 85 1011.3
20220925161211 67 0.0 1.0 0.00 0.20 0.20 85 1011.3
20220925160016 67 0.0 2.0 0.00 0.20 0.20 85 1011.3
20220925155041 67 0.0 2.0 0.00 0.20 0.20 87 1011.4
20220925154016 66 0.0 2.0 0.00 0.20 0.20 90 1011.5
20220925153022 65 0.0 0.0 0.00 0.20 0.20 91 1011.6
20220925152016 64 0.0 1.0 0.01 0.20 0.20 90 1011.7
20220925151036 64 0.0 3.0 0.01 0.20 0.20 90 1011.6
20220925150016 64 113 1.0 3.0 0.01 0.20 0.20 91 1011.5
20220925145046 64 90 1.0 5.0 0.01 0.20 0.20 91 1011.5
20220925143016 65 135 1.0 3.0 0.01 0.20 0.20 91 1011.5
20220925142041 66 0.0 5.0 0.00 0.19 0.19 91 1011.6
20220925141022 66 0.0 0.0 0.00 0.19 0.19 91 1011.9
20220925140016 66 0.0 0.0 0.00 0.19 0.19 91 1012.0
20220925135016 66 0.0 0.0 0.00 0.19 0.19 91 1012.3
20220925134016 66 0.0 0.0 0.00 0.19 0.19 89 1012.6
20220925133041 66 0.0 0.0 0.00 0.19 0.19 89 1012.7
20220925132102 66 0.0 0.0 0.00 0.19 0.19 88 1012.7
20220925131111 67 0.0 0.0 0.00 0.19 0.19 87 1012.5
20220925130021 67 0.0 1.0 0.00 0.19 0.19 86 1012.6
20220925125036 68 0.0 1.0 0.00 0.19 0.19 84 1012.6
20220925124016 68 0.0 1.0 0.00 0.19 0.19 82 1012.9
20220925123057 70 0.0 2.0 0.00 0.19 0.19 80 1012.6
20220925122036 71 0.0 1.0 0.00 0.19 0.19 77 1012.7
20220925121021 72 0.0 2.0 0.01 0.19 0.19 73 1012.9
20220925120016 73 0.0 1.0 0.01 0.19 0.19 69 1012.8
20220925115046 73 0.0 0.0 0.01 0.19 0.19 70 1012.6
20220925114046 74 0.0 3.0 0.01 0.19 0.19 68 1012.6
20220925113036 75 0.0 2.0 0.01 0.19 0.19 67 1012.6
20220925112021 76 0.0 3.0 0.01 0.19 0.19 66 1012.4
20220925111016 76 0.0 3.0 0.00 0.18 0.18 66 1012.4
20220925110016 76 0.0 1.0 0.00 0.18 0.18 67 1012.4
20220925105021 75 0.0 1.0 0.01 0.18 0.18 72 1012.4
20220925104041 74 203 1.0 3.0 0.01 0.18 0.18 72 1012.3
20220925103016 73 203 1.0 4.0 0.01 0.18 0.18 72 1012.2
20220925102046 72 0.0 1.0 0.01 0.18 0.18 75 1012.5
20220925101021 71 203 1.0 4.0 0.01 0.18 0.18 76 1012.4
20220925100021 70 270 1.0 4.0 0.01 0.18 0.18 77 1012.4
20220925095016 69 180 1.0 6.0 0.00 0.17 0.17 80 1012.2
20220925094021 68 203 1.0 3.0 0.01 0.17 0.17 80 1012.1
20220925093036 68 0.0 2.0 0.01 0.17 0.17 83 1012.1
20220925092016 67 0.0 2.0 0.01 0.17 0.17 87 1012.0
20220925091126 66 0.0 2.0 0.01 0.17 0.17 89 1012.1
20220925090041 65 0.0 3.0 0.02 0.17 0.17 90 1012.2
20220925085021 64 0.0 2.0 0.02 0.17 0.17 92 1012.4
20220925084016 64 0.0 2.0 0.01 0.17 0.17 93 1012.4
20220925083021 64 0.0 0.0 0.01 0.17 0.17 94 1012.3
20220925082016 63 0.0 0.0 0.02 0.17 0.17 94 1012.2
20220925081021 63 0.0 0.0 0.02 0.17 0.17 94 1012.3
20220925080016 63 0.0 0.0 0.02 0.16 0.16 94 1012.3
20220925075021 63 0.0 0.0 0.02 0.16 0.16 94 1012.4
20220925074016 62 0.0 0.0 0.02 0.16 0.16 94 1012.5
20220925073036 62 0.0 1.0 0.02 0.16 0.16 94 1012.2
20220925072036 62 0.0 0.0 0.02 0.15 0.15 94 1012.3
20220925071021 61 0.0 1.0 0.02 0.15 0.15 94 1012.2
20220925070021 61 0.0 1.0 0.02 0.14 0.14 94 1012.1
20220925065016 61 0.0 2.0 0.02 0.14 0.14 94 1012.1
20220925064016 61 0.0 1.0 0.02 0.14 0.14 94 1012.1
20220925063041 61 0.0 0.0 0.02 0.13 0.13 94 1012.2
20220925062021 61 0.0 0.0 0.02 0.13 0.13 95 1012.1
20220925061041 61 0.0 0.0 0.02 0.13 0.13 95 1012.1
20220925060016 60 0.0 0.0 0.02 0.13 0.13 95 1012.0
20220925055021 60 0.0 0.0 0.02 0.12 0.12 94 1012.0
20220925054046 60 0.0 0.0 0.02 0.12 0.12 94 1011.5
20220925053016 60 0.0 0.0 0.02 0.11 0.11 94 1011.6
20220925052021 60 0.0 0.0 0.03 0.11 0.11 94 1011.4
20220925051036 60 0.0 0.0 0.02 0.10 0.10 94 1011.5
20220925050021 60 0.0 0.0 0.03 0.10 0.10 93 1011.4
20220925045036 60 0.0 0.0 0.02 0.09 0.09 93 1011.4
20220925044016 61 0.0 1.0 0.03 0.09 0.09 93 1011.3
20220925043041 61 0.0 0.0 0.03 0.09 0.09 93 1011.0
20220925042101 61 0.0 0.0 0.03 0.08 0.08 94 1011.4
20220925041041 61 0.0 0.0 0.04 0.08 0.08 94 1011.7
20220925040021 61 0.0 0.0 0.03 0.07 0.07 94 1011.7
20220925035016 60 0.0 0.0 0.04 0.07 0.07 93 1011.6
20220925034021 60 0.0 0.0 0.03 0.06 0.06 93 1012.1
20220925033016 60 0.0 0.0 0.02 0.06 0.06 92 1012.0
20220925032015 60 0.0 0.0 0.02 0.05 0.05 92 1011.3
20220925031016 60 0.0 0.0 0.02 0.04 0.04 91 1011.4
20220925030036 60 45 1.0 5.0 0.02 0.04 0.04 91 1012.0
20220925025016 60 0.0 1.0 0.02 0.03 0.03 90 1012.2
20220925024015 60 0.0 1.0 0.02 0.03 0.03 89 1012.1